Simultaneous Nadir Overpasses (SNOs) Predictions

Prediction of SNOs between NOAA-19 and NPP Satellite Orbit:

Table of predicted SNOs for the next 14.0 days since TLE Epoch: 5/2/2014
Index Date (NOAA-19) Time (NOAA-19) Lat,Lon (NOAA-19) SZA (NOAA-19 ) Date (NPP) Time (NPP) Lat,Lon (NPP) SZA (NPP ) Distance(km) Time Diff (sec)
1 05/08/2014 13:14:49 -81.00, 107.55 112.46 05/08/2014 13:15:57 -81.00, 107.45 112.49 1.73 68
2 05/08/2014 14:05:54 81.00, -85.16 67.52 05/08/2014 14:06:42 81.00, -85.12 67.49 0.76 48
3 05/08/2014 14:56:53 -81.00, 81.92 112.47 05/08/2014 14:57:27 -81.00, 82.09 112.51 2.88 34
4 05/08/2014 15:47:57 80.99,-110.41 67.47 05/08/2014 15:48:12 81.00,-110.49 67.47 1.35 15
5 05/08/2014 16:38:55 -80.99, 57.03 112.57 05/08/2014 16:38:56 -80.99, 57.08 112.58 0.90 1
6 05/08/2014 17:30:00 80.99,-135.67 67.41 05/08/2014 17:29:41 80.98,-135.49 67.40 3.19 19
7 05/08/2014 18:20:57 -80.97, 32.14 112.68 05/08/2014 18:20:25 -80.97, 32.08 112.66 1.10 32
8 05/08/2014 19:12:02 80.97,-160.55 67.30 05/08/2014 19:11:10 80.97,-160.49 67.32 1.14 52




NCC Satellite Simultaneous Nadir Overpasses (SNOs) Prediction Service
